User: anonymous   Login
Location: Unspecified
(0.0000°N, 0.0000°E)
Time: 06:41:51
(UTC+02:00)
Language:

Meteor 1-10 Rocket - Orbit

View from above orbital plane
View from above orbital plane
View from above satellite
View from above satellite

Ground track
Ground track

The orbit data is extracted from the following two-line orbital elements,

1  5732U 71120B   18111.58891901 +.00000135 +00000-0 +74572-4 0  9999
2  5732 081.2533 185.2302 0050796 256.0063 103.5455 14.05956008374129
Epoch (UTC): 21 April 2018 14:08:02
Eccentricity: 0.0050796
inclination: 81.2533°
perigee height: 836 km
apogee height: 910 km
right ascension of ascending node: 185.2302°
argument of perigee: 256.0063°
revolutions per day: 14.05956008
mean anomaly at epoch: 103.5455°
orbit number at epoch: 37412

The dashed part of the orbit path shows where the satellite is in the earth's shadow,  

DLR